{"data":{"norad_id":52487,"intl_designator":"2022-049AN","name":"STARLINK-3902","alt_names":[],"object_type":"PAYLOAD","status":"ACTIVE","operator":null,"country":"US","launch_date":"2022-05-06","launch_site_code":"AFETR","launch_vehicle":null,"mission":null,"orbit_class":"UNKNOWN","rcs_meters":null,"size_class":null,"mass_kg":null,"dimensions":null,"purposes":["comms"],"wikipedia_slug":null,"has_3d_model":false,"image_url":null,"decayed_at":null,"tle_current":{"epoch":"2026-05-25T03:53:32.712288Z","epoch_age_seconds":64318,"freshness":"FRESH","line1":"1 52487U 22049AN  26145.16218417  .00001045  00000+0  83708-4 0  9990","line2":"2 52487  53.2133  65.9268 0001434 103.7876 256.3275 15.08845452225174","mean_motion":15.08845452,"eccentricity":0.0001434,"inclination_deg":53.2133,"raan_deg":65.9268,"arg_perigee_deg":103.7876,"mean_anomaly_deg":256.3275,"bstar":8.3708e-5,"rev_number":22517,"period_min":95.437209827637,"perigee_km":538.7347027733,"apogee_km":540.71874608947,"semimajor_km":6917.8637244314,"source":"CELESTRAK","updated_at":"2026-05-25T13:38:17.156893Z"}}}